owner,sensor,date,latitude,longitude,vertical_datum,mass_concentration_of_oxygen_in_sea_water,qcFlag 
LUMCON,ioos:station:LUMCON:wisl1:1,2019-10-01T00:00:00Z,29.1144,-90.1840,2.432,6.19,11111222 
LUMCON,ioos:station:LUMCON:wisl1:1,2019-10-01T00:15:00Z,29.1144,-90.1840,2.434,6.16,11111222 
LUMCON,ioos:station:LUMCON:wisl1:1,2019-10-01T00:30:00Z,29.1144,-90.1840,2.437,6.18,11111222 
LUMCON,ioos:station:LUMCON:wisl1:1,2019-10-01T00:45:00Z,29.1144,-90.1840,2.441,6.25,11111222 
LUMCON,ioos:station:LUMCON:wisl1:1,2019-10-01T01:00:00Z,29.1144,-90.1840,2.445,6.45,11111222 
LUMCON,ioos:station:LUMCON:wisl1:1,2019-10-01T01:15:00Z,29.1144,-90.1840,2.454,6.13,11111222 
LUMCON,ioos:station:LUMCON:wisl1:1,2019-10-01T01:30:00Z,29.1144,-90.1840,2.46,6.12,11111222 
LUMCON,ioos:station:LUMCON:wisl1:1,2019-10-01T01:45:00Z,29.1144,-90.1840,2.465,6.05,11111222 
LUMCON,ioos:station:LUMCON:wisl1:1,2019-10-01T02:00:00Z,29.1144,-90.1840,2.466,5.91,11111222 
LUMCON,ioos:station:LUMCON:wisl1:1,2019-10-01T02:15:00Z,29.1144,-90.1840,2.473,6.14,11111222 
LUMCON,ioos:station:LUMCON:wisl1:1,2019-10-01T02:30:00Z,29.1144,-90.1840,2.475,6.23,11111222 
LUMCON,ioos:station:LUMCON:wisl1:1,2019-10-01T02:45:00Z,29.1144,-90.1840,2.482,5.87,11111222 
LUMCON,ioos:station:LUMCON:wisl1:1,2019-10-01T03:00:00Z,29.1144,-90.1840,2.483,6.1,11111222 
LUMCON,ioos:station:LUMCON:wisl1:1,2019-10-01T03:15:00Z,29.1144,-90.1840,2.481,5.67,11111222 
LUMCON,ioos:station:LUMCON:wisl1:1,2019-10-01T03:30:00Z,29.1144,-90.1840,2.481,5.88,11111222 
LUMCON,ioos:station:LUMCON:wisl1:1,2019-10-01T03:45:00Z,29.1144,-90.1840,2.482,6.01,11111222 
LUMCON,ioos:station:LUMCON:wisl1:1,2019-10-01T04:00:00Z,29.1144,-90.1840,2.48,6.08,11111222 
LUMCON,ioos:station:LUMCON:wisl1:1,2019-10-01T04:15:00Z,29.1144,-90.1840,2.48,5.97,11111222 
LUMCON,ioos:station:LUMCON:wisl1:1,2019-10-01T04:30:00Z,29.1144,-90.1840,2.486,5.87,11111222 
LUMCON,ioos:station:LUMCON:wisl1:1,2019-10-01T04:45:00Z,29.1144,-90.1840,2.489,5.7,11111222 
LUMCON,ioos:station:LUMCON:wisl1:1,2019-10-01T05:00:00Z,29.1144,-90.1840,2.493,6.41,11111222 
LUMCON,ioos:station:LUMCON:wisl1:1,2019-10-01T05:15:00Z,29.1144,-90.1840,2.498,6.39,11111222 
LUMCON,ioos:station:LUMCON:wisl1:1,2019-10-01T05:30:00Z,29.1144,-90.1840,2.499,6.24,11111222 
LUMCON,ioos:station:LUMCON:wisl1:1,2019-10-01T05:45:00Z,29.1144,-90.1840,2.503,6.48,11111222 
LUMCON,ioos:station:LUMCON:wisl1:1,2019-10-01T06:00:00Z,29.1144,-90.1840,2.508,6.58,11111222 
LUMCON,ioos:station:LUMCON:wisl1:1,2019-10-01T06:15:00Z,29.1144,-90.1840,2.51,6.59,11111222 
LUMCON,ioos:station:LUMCON:wisl1:1,2019-10-01T06:30:00Z,29.1144,-90.1840,2.513,6.44,11111222 
LUMCON,ioos:station:LUMCON:wisl1:1,2019-10-01T06:45:00Z,29.1144,-90.1840,2.512,6.35,11111222 
LUMCON,ioos:station:LUMCON:wisl1:1,2019-10-01T07:00:00Z,29.1144,-90.1840,2.513,5.73,11111222 
LUMCON,ioos:station:LUMCON:wisl1:1,2019-10-01T07:15:00Z,29.1144,-90.1840,2.509,6.32,11111222 
LUMCON,ioos:station:LUMCON:wisl1:1,2019-10-01T07:30:00Z,29.1144,-90.1840,2.503,5.43,11111222 
LUMCON,ioos:station:LUMCON:wisl1:1,2019-10-01T07:45:00Z,29.1144,-90.1840,2.496,5.77,11111222 
LUMCON,ioos:station:LUMCON:wisl1:1,2019-10-01T08:00:00Z,29.1144,-90.1840,2.489,5.5,11111222 
LUMCON,ioos:station:LUMCON:wisl1:1,2019-10-01T08:15:00Z,29.1144,-90.1840,2.478,5.62,11111222 
LUMCON,ioos:station:LUMCON:wisl1:1,2019-10-01T08:30:00Z,29.1144,-90.1840,2.468,5.57,11111222 
LUMCON,ioos:station:LUMCON:wisl1:1,2019-10-01T08:45:00Z,29.1144,-90.1840,2.462,5.65,11111222 
LUMCON,ioos:station:LUMCON:wisl1:1,2019-10-01T09:00:00Z,29.1144,-90.1840,2.452,5.68,11111222 
LUMCON,ioos:station:LUMCON:wisl1:1,2019-10-01T09:15:00Z,29.1144,-90.1840,2.441,5.74,11111222 
LUMCON,ioos:station:LUMCON:wisl1:1,2019-10-01T09:30:00Z,29.1144,-90.1840,2.429,5.69,11111222 
LUMCON,ioos:station:LUMCON:wisl1:1,2019-10-01T09:45:00Z,29.1144,-90.1840,2.429,5.68,11111222 
LUMCON,ioos:station:LUMCON:wisl1:1,2019-10-01T10:00:00Z,29.1144,-90.1840,2.431,5.79,11111222 
LUMCON,ioos:station:LUMCON:wisl1:1,2019-10-01T10:15:00Z,29.1144,-90.1840,2.427,5.7,11111222 
LUMCON,ioos:station:LUMCON:wisl1:1,2019-10-01T10:30:00Z,29.1144,-90.1840,2.421,5.71,11111222 
LUMCON,ioos:station:LUMCON:wisl1:1,2019-10-01T10:45:00Z,29.1144,-90.1840,2.411,5.63,11111222 
LUMCON,ioos:station:LUMCON:wisl1:1,2019-10-01T11:00:00Z,29.1144,-90.1840,2.404,5.65,11111222 
LUMCON,ioos:station:LUMCON:wisl1:1,2019-10-01T11:15:00Z,29.1144,-90.1840,2.39,5.59,11111222 
LUMCON,ioos:station:LUMCON:wisl1:1,2019-10-01T11:30:00Z,29.1144,-90.1840,2.386,5.61,11111222 
LUMCON,ioos:station:LUMCON:wisl1:1,2019-10-01T11:45:00Z,29.1144,-90.1840,2.384,5.59,11111222 
LUMCON,ioos:station:LUMCON:wisl1:1,2019-10-01T12:00:00Z,29.1144,-90.1840,2.377,5.74,11111222 
LUMCON,ioos:station:LUMCON:wisl1:1,2019-10-01T12:15:00Z,29.1144,-90.1840,2.368,5.78,11111222 
LUMCON,ioos:station:LUMCON:wisl1:1,2019-10-01T12:30:00Z,29.1144,-90.1840,2.363,5.73,11111222 
LUMCON,ioos:station:LUMCON:wisl1:1,2019-10-01T12:45:00Z,29.1144,-90.1840,2.358,5.78,11111222 
LUMCON,ioos:station:LUMCON:wisl1:1,2019-10-01T13:00:00Z,29.1144,-90.1840,2.347,5.92,11111222 
LUMCON,ioos:station:LUMCON:wisl1:1,2019-10-01T13:15:00Z,29.1144,-90.1840,2.343,5.79,11111222 
LUMCON,ioos:station:LUMCON:wisl1:1,2019-10-01T13:30:00Z,29.1144,-90.1840,2.337,5.98,11111222 
LUMCON,ioos:station:LUMCON:wisl1:1,2019-10-01T13:45:00Z,29.1144,-90.1840,2.331,6.06,11111222 
LUMCON,ioos:station:LUMCON:wisl1:1,2019-10-01T14:00:00Z,29.1144,-90.1840,2.326,6.1,11111222 
LUMCON,ioos:station:LUMCON:wisl1:1,2019-10-01T14:15:00Z,29.1144,-90.1840,2.323,6.23,11111222 
LUMCON,ioos:station:LUMCON:wisl1:1,2019-10-01T14:30:00Z,29.1144,-90.1840,2.328,5.91,11111222 
LUMCON,ioos:station:LUMCON:wisl1:1,2019-10-01T14:45:00Z,29.1144,-90.1840,2.31,5.73,11111222 
LUMCON,ioos:station:LUMCON:wisl1:1,2019-10-01T15:00:00Z,29.1144,-90.1840,2.319,5.82,11111222 
LUMCON,ioos:station:LUMCON:wisl1:1,2019-10-01T15:15:00Z,29.1144,-90.1840,2.309,5.81,11111222 
LUMCON,ioos:station:LUMCON:wisl1:1,2019-10-01T15:30:00Z,29.1144,-90.1840,2.304,5.79,11111222 
LUMCON,ioos:station:LUMCON:wisl1:1,2019-10-01T15:45:00Z,29.1144,-90.1840,2.301,5.88,11111222 
LUMCON,ioos:station:LUMCON:wisl1:1,2019-10-01T16:00:00Z,29.1144,-90.1840,2.295,5.97,11111222 
LUMCON,ioos:station:LUMCON:wisl1:1,2019-10-01T16:15:00Z,29.1144,-90.1840,2.286,6.03,11111222 
LUMCON,ioos:station:LUMCON:wisl1:1,2019-10-01T16:30:00Z,29.1144,-90.1840,2.288,6.29,11111222 
LUMCON,ioos:station:LUMCON:wisl1:1,2019-10-01T16:45:00Z,29.1144,-90.1840,2.28,6.23,11111222 
LUMCON,ioos:station:LUMCON:wisl1:1,2019-10-01T17:00:00Z,29.1144,-90.1840,2.274,6.59,11111222 
LUMCON,ioos:station:LUMCON:wisl1:1,2019-10-01T17:15:00Z,29.1144,-90.1840,2.273,6.52,11111222 
LUMCON,ioos:station:LUMCON:wisl1:1,2019-10-01T17:30:00Z,29.1144,-90.1840,2.275,6.57,11111222 
LUMCON,ioos:station:LUMCON:wisl1:1,2019-10-01T17:45:00Z,29.1144,-90.1840,2.274,6.82,11111222 
LUMCON,ioos:station:LUMCON:wisl1:1,2019-10-01T18:00:00Z,29.1144,-90.1840,2.28,6.77,11111222 
LUMCON,ioos:station:LUMCON:wisl1:1,2019-10-01T18:15:00Z,29.1144,-90.1840,2.284,6.83,11111222 
LUMCON,ioos:station:LUMCON:wisl1:1,2019-10-01T18:30:00Z,29.1144,-90.1840,2.288,6.67,11111222 
LUMCON,ioos:station:LUMCON:wisl1:1,2019-10-01T18:45:00Z,29.1144,-90.1840,2.293,6.82,11111222 
LUMCON,ioos:station:LUMCON:wisl1:1,2019-10-01T19:00:00Z,29.1144,-90.1840,2.297,6.65,11111222 
LUMCON,ioos:station:LUMCON:wisl1:1,2019-10-01T19:15:00Z,29.1144,-90.1840,2.295,7.67,11111222 
LUMCON,ioos:station:LUMCON:wisl1:1,2019-10-01T19:30:00Z,29.1144,-90.1840,2.296,7.91,11111222 
LUMCON,ioos:station:LUMCON:wisl1:1,2019-10-01T19:45:00Z,29.1144,-90.1840,2.29,7.95,11111222 
LUMCON,ioos:station:LUMCON:wisl1:1,2019-10-01T20:00:00Z,29.1144,-90.1840,2.293,7.74,11111222 
LUMCON,ioos:station:LUMCON:wisl1:1,2019-10-01T20:15:00Z,29.1144,-90.1840,2.299,7.66,11111222 
LUMCON,ioos:station:LUMCON:wisl1:1,2019-10-01T20:30:00Z,29.1144,-90.1840,2.316,6.97,11111222 
LUMCON,ioos:station:LUMCON:wisl1:1,2019-10-01T20:45:00Z,29.1144,-90.1840,2.324,7.11,11111222 
LUMCON,ioos:station:LUMCON:wisl1:1,2019-10-01T21:00:00Z,29.1144,-90.1840,2.339,7.22,11111222 
LUMCON,ioos:station:LUMCON:wisl1:1,2019-10-01T21:15:00Z,29.1144,-90.1840,2.35,6.55,11111222 
LUMCON,ioos:station:LUMCON:wisl1:1,2019-10-01T21:30:00Z,29.1144,-90.1840,2.362,6.45,11111222 
LUMCON,ioos:station:LUMCON:wisl1:1,2019-10-01T21:45:00Z,29.1144,-90.1840,2.371,6.37,11111222 
LUMCON,ioos:station:LUMCON:wisl1:1,2019-10-01T22:00:00Z,29.1144,-90.1840,2.382,6.37,11111222 
LUMCON,ioos:station:LUMCON:wisl1:1,2019-10-01T22:15:00Z,29.1144,-90.1840,2.39,6.34,11111222 
LUMCON,ioos:station:LUMCON:wisl1:1,2019-10-01T22:30:00Z,29.1144,-90.1840,2.397,6.48,11111222 
LUMCON,ioos:station:LUMCON:wisl1:1,2019-10-01T22:45:00Z,29.1144,-90.1840,2.402,6.7,11111222 
LUMCON,ioos:station:LUMCON:wisl1:1,2019-10-01T23:00:00Z,29.1144,-90.1840,2.405,6.83,11111222 
LUMCON,ioos:station:LUMCON:wisl1:1,2019-10-01T23:15:00Z,29.1144,-90.1840,2.411,7.01,11111222 
LUMCON,ioos:station:LUMCON:wisl1:1,2019-10-01T23:30:00Z,29.1144,-90.1840,2.417,7.18,11111222 
LUMCON,ioos:station:LUMCON:wisl1:1,2019-10-01T23:45:00Z,29.1144,-90.1840,2.426,7.16,11111222 
LUMCON,ioos:station:LUMCON:wisl1:1,2019-10-02T00:00:00Z,29.1144,-90.1840,2.435,7.24,11111222 
LUMCON,ioos:station:LUMCON:wisl1:1,2019-10-02T00:15:00Z,29.1144,-90.1840,2.437,7.26,11111222 
LUMCON,ioos:station:LUMCON:wisl1:1,2019-10-02T00:30:00Z,29.1144,-90.1840,2.445,7.01,11111222 
LUMCON,ioos:station:LUMCON:wisl1:1,2019-10-02T00:45:00Z,29.1144,-90.1840,2.455,7.13,11111222 
LUMCON,ioos:station:LUMCON:wisl1:1,2019-10-02T01:00:00Z,29.1144,-90.1840,2.464,7.27,11111222 
LUMCON,ioos:station:LUMCON:wisl1:1,2019-10-02T01:15:00Z,29.1144,-90.1840,2.471,7.42,11111222 
LUMCON,ioos:station:LUMCON:wisl1:1,2019-10-02T01:30:00Z,29.1144,-90.1840,2.479,7.14,11111222 
LUMCON,ioos:station:LUMCON:wisl1:1,2019-10-02T01:45:00Z,29.1144,-90.1840,2.488,7.44,11111222 
LUMCON,ioos:station:LUMCON:wisl1:1,2019-10-02T02:00:00Z,29.1144,-90.1840,2.499,7.35,11111222 
LUMCON,ioos:station:LUMCON:wisl1:1,2019-10-02T02:15:00Z,29.1144,-90.1840,2.506,7.45,11111222 
LUMCON,ioos:station:LUMCON:wisl1:1,2019-10-02T02:30:00Z,29.1144,-90.1840,2.519,7.14,11111222 
LUMCON,ioos:station:LUMCON:wisl1:1,2019-10-02T02:45:00Z,29.1144,-90.1840,2.527,7.34,11111222 
LUMCON,ioos:station:LUMCON:wisl1:1,2019-10-02T03:00:00Z,29.1144,-90.1840,2.537,7.24,11111222 
LUMCON,ioos:station:LUMCON:wisl1:1,2019-10-02T03:15:00Z,29.1144,-90.1840,2.548,7.26,11111222 
LUMCON,ioos:station:LUMCON:wisl1:1,2019-10-02T03:30:00Z,29.1144,-90.1840,2.554,7.14,11111222 
LUMCON,ioos:station:LUMCON:wisl1:1,2019-10-02T03:45:00Z,29.1144,-90.1840,2.56,7.07,11111222 
LUMCON,ioos:station:LUMCON:wisl1:1,2019-10-02T04:00:00Z,29.1144,-90.1840,2.562,6.61,11111222 
LUMCON,ioos:station:LUMCON:wisl1:1,2019-10-02T04:15:00Z,29.1144,-90.1840,2.565,7.03,11111222 
LUMCON,ioos:station:LUMCON:wisl1:1,2019-10-02T04:30:00Z,29.1144,-90.1840,2.568,7.1,11111222 
LUMCON,ioos:station:LUMCON:wisl1:1,2019-10-02T04:45:00Z,29.1144,-90.1840,2.577,6.82,11111222 
LUMCON,ioos:station:LUMCON:wisl1:1,2019-10-02T05:00:00Z,29.1144,-90.1840,2.577,7.0,11111222 
LUMCON,ioos:station:LUMCON:wisl1:1,2019-10-02T05:15:00Z,29.1144,-90.1840,2.577,6.65,11111222 
LUMCON,ioos:station:LUMCON:wisl1:1,2019-10-02T05:30:00Z,29.1144,-90.1840,2.579,7.02,11111222 
LUMCON,ioos:station:LUMCON:wisl1:1,2019-10-02T05:45:00Z,29.1144,-90.1840,2.58,7.06,11111222 
LUMCON,ioos:station:LUMCON:wisl1:1,2019-10-02T06:00:00Z,29.1144,-90.1840,2.58,7.04,11111222 
LUMCON,ioos:station:LUMCON:wisl1:1,2019-10-02T06:15:00Z,29.1144,-90.1840,2.578,7.1,11111222 
LUMCON,ioos:station:LUMCON:wisl1:1,2019-10-02T06:30:00Z,29.1144,-90.1840,2.577,7.07,11111222 
LUMCON,ioos:station:LUMCON:wisl1:1,2019-10-02T06:45:00Z,29.1144,-90.1840,2.577,7.2,11111222 
LUMCON,ioos:station:LUMCON:wisl1:1,2019-10-02T07:00:00Z,29.1144,-90.1840,2.575,6.96,11111222 
LUMCON,ioos:station:LUMCON:wisl1:1,2019-10-02T07:15:00Z,29.1144,-90.1840,2.571,6.97,11111222 
LUMCON,ioos:station:LUMCON:wisl1:1,2019-10-02T07:30:00Z,29.1144,-90.1840,2.568,7.09,11111222 
LUMCON,ioos:station:LUMCON:wisl1:1,2019-10-02T07:45:00Z,29.1144,-90.1840,2.564,7.1,11111222 
LUMCON,ioos:station:LUMCON:wisl1:1,2019-10-02T08:00:00Z,29.1144,-90.1840,2.553,7.0,11111222 
LUMCON,ioos:station:LUMCON:wisl1:1,2019-10-02T08:15:00Z,29.1144,-90.1840,2.548,6.87,11111222 
LUMCON,ioos:station:LUMCON:wisl1:1,2019-10-02T08:30:00Z,29.1144,-90.1840,2.542,6.86,11111222 
LUMCON,ioos:station:LUMCON:wisl1:1,2019-10-02T08:45:00Z,29.1144,-90.1840,2.533,6.7,11111222 
LUMCON,ioos:station:LUMCON:wisl1:1,2019-10-02T09:00:00Z,29.1144,-90.1840,2.527,6.5,11111222 
LUMCON,ioos:station:LUMCON:wisl1:1,2019-10-02T09:15:00Z,29.1144,-90.1840,2.526,6.45,11111222 
LUMCON,ioos:station:LUMCON:wisl1:1,2019-10-02T09:30:00Z,29.1144,-90.1840,2.518,6.5,11111222 
LUMCON,ioos:station:LUMCON:wisl1:1,2019-10-02T09:45:00Z,29.1144,-90.1840,2.507,6.5,11111222 
LUMCON,ioos:station:LUMCON:wisl1:1,2019-10-02T10:00:00Z,29.1144,-90.1840,2.501,6.34,11111222 
LUMCON,ioos:station:LUMCON:wisl1:1,2019-10-02T10:15:00Z,29.1144,-90.1840,2.496,6.16,11111222 
LUMCON,ioos:station:LUMCON:wisl1:1,2019-10-02T10:30:00Z,29.1144,-90.1840,2.485,6.08,11111222 
LUMCON,ioos:station:LUMCON:wisl1:1,2019-10-02T10:45:00Z,29.1144,-90.1840,2.474,5.99,11111222 
LUMCON,ioos:station:LUMCON:wisl1:1,2019-10-02T11:00:00Z,29.1144,-90.1840,2.463,5.95,11111222 
LUMCON,ioos:station:LUMCON:wisl1:1,2019-10-02T11:15:00Z,29.1144,-90.1840,2.45,6.04,11111222 
LUMCON,ioos:station:LUMCON:wisl1:1,2019-10-02T11:30:00Z,29.1144,-90.1840,2.44,5.89,11111222 
LUMCON,ioos:station:LUMCON:wisl1:1,2019-10-02T11:45:00Z,29.1144,-90.1840,2.428,5.84,11111222 
LUMCON,ioos:station:LUMCON:wisl1:1,2019-10-02T12:00:00Z,29.1144,-90.1840,2.415,5.82,11111222 
LUMCON,ioos:station:LUMCON:wisl1:1,2019-10-02T12:15:00Z,29.1144,-90.1840,2.406,5.8,11111222 
LUMCON,ioos:station:LUMCON:wisl1:1,2019-10-02T12:30:00Z,29.1144,-90.1840,2.391,5.86,11111222 
LUMCON,ioos:station:LUMCON:wisl1:1,2019-10-02T12:45:00Z,29.1144,-90.1840,2.377,5.71,11111222 
LUMCON,ioos:station:LUMCON:wisl1:1,2019-10-02T13:00:00Z,29.1144,-90.1840,2.369,5.78,11111222 
LUMCON,ioos:station:LUMCON:wisl1:1,2019-10-02T13:15:00Z,29.1144,-90.1840,2.358,5.77,11111222 
LUMCON,ioos:station:LUMCON:wisl1:1,2019-10-02T13:30:00Z,29.1144,-90.1840,2.348,5.83,11111222 
LUMCON,ioos:station:LUMCON:wisl1:1,2019-10-02T13:45:00Z,29.1144,-90.1840,2.335,5.77,11111222 
LUMCON,ioos:station:LUMCON:wisl1:1,2019-10-02T14:00:00Z,29.1144,-90.1840,2.323,5.76,11111222 
LUMCON,ioos:station:LUMCON:wisl1:1,2019-10-02T14:15:00Z,29.1144,-90.1840,2.315,5.77,11111222 
LUMCON,ioos:station:LUMCON:wisl1:1,2019-10-02T14:30:00Z,29.1144,-90.1840,2.307,5.87,11111222 
LUMCON,ioos:station:LUMCON:wisl1:1,2019-10-02T14:45:00Z,29.1144,-90.1840,2.297,5.82,11111222 
LUMCON,ioos:station:LUMCON:wisl1:1,2019-10-02T15:00:00Z,29.1144,-90.1840,2.287,5.98,11111222 
LUMCON,ioos:station:LUMCON:wisl1:1,2019-10-02T15:15:00Z,29.1144,-90.1840,2.275,5.96,11111222 
LUMCON,ioos:station:LUMCON:wisl1:1,2019-10-02T15:30:00Z,29.1144,-90.1840,2.263,6.1,11111222 
LUMCON,ioos:station:LUMCON:wisl1:1,2019-10-02T15:45:00Z,29.1144,-90.1840,2.246,6.14,11111222 
LUMCON,ioos:station:LUMCON:wisl1:1,2019-10-02T16:00:00Z,29.1144,-90.1840,2.239,6.36,11111222 
LUMCON,ioos:station:LUMCON:wisl1:1,2019-10-02T16:15:00Z,29.1144,-90.1840,2.222,6.47,11111222 
LUMCON,ioos:station:LUMCON:wisl1:1,2019-10-02T16:30:00Z,29.1144,-90.1840,2.215,6.63,11111222 
LUMCON,ioos:station:LUMCON:wisl1:1,2019-10-02T16:45:00Z,29.1144,-90.1840,2.208,6.74,11111222 
LUMCON,ioos:station:LUMCON:wisl1:1,2019-10-02T17:00:00Z,29.1144,-90.1840,2.2,6.73,11111222 
LUMCON,ioos:station:LUMCON:wisl1:1,2019-10-02T17:15:00Z,29.1144,-90.1840,2.186,7.0,11111222 
LUMCON,ioos:station:LUMCON:wisl1:1,2019-10-02T17:30:00Z,29.1144,-90.1840,2.173,7.02,11111222 
LUMCON,ioos:station:LUMCON:wisl1:1,2019-10-02T17:45:00Z,29.1144,-90.1840,2.17,7.03,11111222 
LUMCON,ioos:station:LUMCON:wisl1:1,2019-10-02T18:00:00Z,29.1144,-90.1840,2.166,7.33,11111222 
LUMCON,ioos:station:LUMCON:wisl1:1,2019-10-02T18:15:00Z,29.1144,-90.1840,2.153,7.28,11111222 
LUMCON,ioos:station:LUMCON:wisl1:1,2019-10-02T18:30:00Z,29.1144,-90.1840,2.144,7.53,11111222 
LUMCON,ioos:station:LUMCON:wisl1:1,2019-10-02T18:45:00Z,29.1144,-90.1840,2.139,7.59,11111222 
LUMCON,ioos:station:LUMCON:wisl1:1,2019-10-02T19:00:00Z,29.1144,-90.1840,2.145,7.56,11111222 
LUMCON,ioos:station:LUMCON:wisl1:1,2019-10-02T19:15:00Z,29.1144,-90.1840,2.148,7.55,11111222 
LUMCON,ioos:station:LUMCON:wisl1:1,2019-10-02T19:30:00Z,29.1144,-90.1840,2.145,7.56,11111222 
LUMCON,ioos:station:LUMCON:wisl1:1,2019-10-02T19:45:00Z,29.1144,-90.1840,2.157,7.52,11111222 
LUMCON,ioos:station:LUMCON:wisl1:1,2019-10-02T20:00:00Z,29.1144,-90.1840,2.159,7.72,11111222 
LUMCON,ioos:station:LUMCON:wisl1:1,2019-10-02T20:15:00Z,29.1144,-90.1840,2.169,7.13,11111222 
LUMCON,ioos:station:LUMCON:wisl1:1,2019-10-02T20:30:00Z,29.1144,-90.1840,2.176,7.53,11111222 
LUMCON,ioos:station:LUMCON:wisl1:1,2019-10-02T20:45:00Z,29.1144,-90.1840,2.177,8.09,11111222 
LUMCON,ioos:station:LUMCON:wisl1:1,2019-10-02T21:00:00Z,29.1144,-90.1840,2.186,8.27,11111222 
LUMCON,ioos:station:LUMCON:wisl1:1,2019-10-02T21:15:00Z,29.1144,-90.1840,2.19,8.24,11111222 
LUMCON,ioos:station:LUMCON:wisl1:1,2019-10-02T21:30:00Z,29.1144,-90.1840,2.205,7.95,11111222 
LUMCON,ioos:station:LUMCON:wisl1:1,2019-10-02T21:45:00Z,29.1144,-90.1840,2.209,7.58,11111222 
LUMCON,ioos:station:LUMCON:wisl1:1,2019-10-02T22:00:00Z,29.1144,-90.1840,2.22,7.28,11111222 
LUMCON,ioos:station:LUMCON:wisl1:1,2019-10-02T22:15:00Z,29.1144,-90.1840,2.239,7.24,11111222 
LUMCON,ioos:station:LUMCON:wisl1:1,2019-10-02T22:30:00Z,29.1144,-90.1840,2.255,7.21,11111222 
LUMCON,ioos:station:LUMCON:wisl1:1,2019-10-02T22:45:00Z,29.1144,-90.1840,2.266,7.19,11111222 
LUMCON,ioos:station:LUMCON:wisl1:1,2019-10-02T23:00:00Z,29.1144,-90.1840,2.287,6.74,11111222 
LUMCON,ioos:station:LUMCON:wisl1:1,2019-10-02T23:15:00Z,29.1144,-90.1840,2.3,6.76,11111222 
LUMCON,ioos:station:LUMCON:wisl1:1,2019-10-02T23:30:00Z,29.1144,-90.1840,2.327,6.67,11111222 
LUMCON,ioos:station:LUMCON:wisl1:1,2019-10-02T23:45:00Z,29.1144,-90.1840,2.34,6.67,11111222 
LUMCON,ioos:station:LUMCON:wisl1:1,2019-10-03T00:00:00Z,29.1144,-90.1840,2.351,6.68,11111222 
LUMCON,ioos:station:LUMCON:wisl1:1,2019-10-03T00:15:00Z,29.1144,-90.1840,2.369,7.08,11111222 
LUMCON,ioos:station:LUMCON:wisl1:1,2019-10-03T00:30:00Z,29.1144,-90.1840,2.383,7.34,11111222 
LUMCON,ioos:station:LUMCON:wisl1:1,2019-10-03T00:45:00Z,29.1144,-90.1840,2.396,7.26,11111222 
LUMCON,ioos:station:LUMCON:wisl1:1,2019-10-03T01:00:00Z,29.1144,-90.1840,2.406,7.63,11111222 
LUMCON,ioos:station:LUMCON:wisl1:1,2019-10-03T01:15:00Z,29.1144,-90.1840,2.416,7.45,11111222 
LUMCON,ioos:station:LUMCON:wisl1:1,2019-10-03T01:30:00Z,29.1144,-90.1840,2.431,7.51,11111222 
LUMCON,ioos:station:LUMCON:wisl1:1,2019-10-03T01:45:00Z,29.1144,-90.1840,2.446,7.61,11111222 
LUMCON,ioos:station:LUMCON:wisl1:1,2019-10-03T02:00:00Z,29.1144,-90.1840,2.46,7.81,11111222 
LUMCON,ioos:station:LUMCON:wisl1:1,2019-10-03T02:15:00Z,29.1144,-90.1840,2.47,7.84,11111222 
LUMCON,ioos:station:LUMCON:wisl1:1,2019-10-03T02:30:00Z,29.1144,-90.1840,2.483,7.76,11111222 
LUMCON,ioos:station:LUMCON:wisl1:1,2019-10-03T02:45:00Z,29.1144,-90.1840,2.491,7.83,11111222 
LUMCON,ioos:station:LUMCON:wisl1:1,2019-10-03T03:00:00Z,29.1144,-90.1840,2.507,7.78,11111222 
LUMCON,ioos:station:LUMCON:wisl1:1,2019-10-03T03:15:00Z,29.1144,-90.1840,2.519,7.68,11111222 
LUMCON,ioos:station:LUMCON:wisl1:1,2019-10-03T03:30:00Z,29.1144,-90.1840,2.527,7.77,11111222 
LUMCON,ioos:station:LUMCON:wisl1:1,2019-10-03T03:45:00Z,29.1144,-90.1840,2.533,7.71,11111222 
LUMCON,ioos:station:LUMCON:wisl1:1,2019-10-03T04:00:00Z,29.1144,-90.1840,2.543,7.83,11111222 
LUMCON,ioos:station:LUMCON:wisl1:1,2019-10-03T04:15:00Z,29.1144,-90.1840,2.552,7.6,11111222 
LUMCON,ioos:station:LUMCON:wisl1:1,2019-10-03T04:30:00Z,29.1144,-90.1840,2.56,7.74,11111222 
LUMCON,ioos:station:LUMCON:wisl1:1,2019-10-03T04:45:00Z,29.1144,-90.1840,2.569,7.4,11111222 
LUMCON,ioos:station:LUMCON:wisl1:1,2019-10-03T05:00:00Z,29.1144,-90.1840,2.575,7.7,11111222 
LUMCON,ioos:station:LUMCON:wisl1:1,2019-10-03T05:15:00Z,29.1144,-90.1840,2.579,7.59,11111222 
LUMCON,ioos:station:LUMCON:wisl1:1,2019-10-03T05:30:00Z,29.1144,-90.1840,2.586,7.74,11111222 
LUMCON,ioos:station:LUMCON:wisl1:1,2019-10-03T05:45:00Z,29.1144,-90.1840,2.588,7.73,11111222 
LUMCON,ioos:station:LUMCON:wisl1:1,2019-10-03T06:00:00Z,29.1144,-90.1840,2.594,7.74,11111222 
LUMCON,ioos:station:LUMCON:wisl1:1,2019-10-03T06:15:00Z,29.1144,-90.1840,2.598,7.67,11111222 
LUMCON,ioos:station:LUMCON:wisl1:1,2019-10-03T06:30:00Z,29.1144,-90.1840,2.601,7.67,11111222 
LUMCON,ioos:station:LUMCON:wisl1:1,2019-10-03T06:45:00Z,29.1144,-90.1840,2.605,7.6,11111222 
LUMCON,ioos:station:LUMCON:wisl1:1,2019-10-03T07:00:00Z,29.1144,-90.1840,2.608,7.54,11111222 
LUMCON,ioos:station:LUMCON:wisl1:1,2019-10-03T07:15:00Z,29.1144,-90.1840,2.609,7.37,11111222 
LUMCON,ioos:station:LUMCON:wisl1:1,2019-10-03T07:30:00Z,29.1144,-90.1840,2.611,7.63,11111222 
LUMCON,ioos:station:LUMCON:wisl1:1,2019-10-03T07:45:00Z,29.1144,-90.1840,2.611,7.62,11111222 
LUMCON,ioos:station:LUMCON:wisl1:1,2019-10-03T08:00:00Z,29.1144,-90.1840,2.606,7.53,11111222 
LUMCON,ioos:station:LUMCON:wisl1:1,2019-10-03T08:15:00Z,29.1144,-90.1840,2.604,7.5,11111222 
LUMCON,ioos:station:LUMCON:wisl1:1,2019-10-03T08:30:00Z,29.1144,-90.1840,2.603,7.61,11111222 
LUMCON,ioos:station:LUMCON:wisl1:1,2019-10-03T08:45:00Z,29.1144,-90.1840,2.594,7.54,11111222 
LUMCON,ioos:station:LUMCON:wisl1:1,2019-10-03T09:00:00Z,29.1144,-90.1840,2.587,7.17,11111222 
LUMCON,ioos:station:LUMCON:wisl1:1,2019-10-03T09:15:00Z,29.1144,-90.1840,2.582,7.55,11111222 
LUMCON,ioos:station:LUMCON:wisl1:1,2019-10-03T09:30:00Z,29.1144,-90.1840,2.57,7.3,11111222 
LUMCON,ioos:station:LUMCON:wisl1:1,2019-10-03T09:45:00Z,29.1144,-90.1840,2.556,7.28,11111222 
LUMCON,ioos:station:LUMCON:wisl1:1,2019-10-03T10:00:00Z,29.1144,-90.1840,2.55,7.2,11111222 
LUMCON,ioos:station:LUMCON:wisl1:1,2019-10-03T10:15:00Z,29.1144,-90.1840,2.543,7.04,11111222 
LUMCON,ioos:station:LUMCON:wisl1:1,2019-10-03T10:30:00Z,29.1144,-90.1840,2.535,7.01,11111222 
LUMCON,ioos:station:LUMCON:wisl1:1,2019-10-03T10:45:00Z,29.1144,-90.1840,2.527,6.81,11111222 
LUMCON,ioos:station:LUMCON:wisl1:1,2019-10-03T11:00:00Z,29.1144,-90.1840,2.518,6.78,11111222 
LUMCON,ioos:station:LUMCON:wisl1:1,2019-10-03T11:15:00Z,29.1144,-90.1840,2.507,6.63,11111222 
LUMCON,ioos:station:LUMCON:wisl1:1,2019-10-03T11:30:00Z,29.1144,-90.1840,2.501,6.53,11111222 
LUMCON,ioos:station:LUMCON:wisl1:1,2019-10-03T11:45:00Z,29.1144,-90.1840,2.492,6.31,11111222 
LUMCON,ioos:station:LUMCON:wisl1:1,2019-10-03T12:00:00Z,29.1144,-90.1840,2.483,6.32,11111222 
LUMCON,ioos:station:LUMCON:wisl1:1,2019-10-03T12:15:00Z,29.1144,-90.1840,2.477,6.39,11111222 
LUMCON,ioos:station:LUMCON:wisl1:1,2019-10-03T12:30:00Z,29.1144,-90.1840,2.467,6.25,11111222 
LUMCON,ioos:station:LUMCON:wisl1:1,2019-10-03T12:45:00Z,29.1144,-90.1840,2.461,6.19,11111222 
LUMCON,ioos:station:LUMCON:wisl1:1,2019-10-03T13:00:00Z,29.1144,-90.1840,2.451,6.2,11111222 
LUMCON,ioos:station:LUMCON:wisl1:1,2019-10-03T13:15:00Z,29.1144,-90.1840,2.438,6.14,11111222 
LUMCON,ioos:station:LUMCON:wisl1:1,2019-10-03T13:30:00Z,29.1144,-90.1840,2.423,6.04,11111222 
LUMCON,ioos:station:LUMCON:wisl1:1,2019-10-03T13:45:00Z,29.1144,-90.1840,2.414,6.13,11111222 
LUMCON,ioos:station:LUMCON:wisl1:1,2019-10-03T14:00:00Z,29.1144,-90.1840,2.402,6.02,11111222 
LUMCON,ioos:station:LUMCON:wisl1:1,2019-10-03T14:15:00Z,29.1144,-90.1840,2.393,6.11,11111222 
LUMCON,ioos:station:LUMCON:wisl1:1,2019-10-03T14:30:00Z,29.1144,-90.1840,2.377,5.89,11111222 
LUMCON,ioos:station:LUMCON:wisl1:1,2019-10-03T14:45:00Z,29.1144,-90.1840,2.363,6.05,11111222 
LUMCON,ioos:station:LUMCON:wisl1:1,2019-10-03T15:00:00Z,29.1144,-90.1840,2.353,6.13,11111222 
LUMCON,ioos:station:LUMCON:wisl1:1,2019-10-03T15:15:00Z,29.1144,-90.1840,2.343,6.13,11111222 